Location: Sara Kaeo
(13.8170°N, 102.0670°E)
Time: 05:35:38
(UTC+07:00)

ISS - Visible Passes

Search period start: 14 November 2018 00:00
Search period end: 24 November 2018 00:00
Orbit: 402 x 409 km, 51.6° (Epoch: 14 November)

Date Brightness Start Highest point End Pass type
(mag) Time Alt. Az. Time Alt. Az. Time Alt. Az.
16 Nov -0.8 05:31:46 10° NNE 05:32:45 11° NE 05:33:44 10° ENE visible
17 Nov -1.3 19:30:13 10° SW 19:31:24 20° SW 19:31:24 20° SW visible
18 Nov -2.4 05:22:06 10° NNW 05:25:08 36° NE 05:28:10 10° ESE visible
18 Nov -3.1 18:38:26 10° SSW 18:41:26 35° SE 18:42:08 31° E visible
19 Nov -1.2 04:32:33 15° NE 04:33:01 15° NE 04:34:59 10° E visible
19 Nov -1.4 19:23:19 10° W 19:25:34 19° NW 19:25:34 19° NW visible
20 Nov -3.6 05:15:58 28° WNW 05:17:20 49° SW 05:20:30 10° SSE visible
20 Nov -3.1 18:30:27 10° SW 18:33:36 49° NW 18:36:13 14° NNE visible
21 Nov -1.8 04:26:41 28° ESE 04:26:41 28° ESE 04:28:28 10° SE visible
22 Nov -1.5 05:10:05 13° SW 05:10:05 13° SW 05:11:04 10° SSW visible
22 Nov -1.1 18:24:01 10° W 18:25:50 14° NW 18:27:39 10° NNW visible
